This is the latest recevied weather packets stored in our database for station/object M0XDC. If no packets are shown the sender has not sent any weather packets the latest 10 day(s).
| Time | Temp. | Humidity | Pressure | Rain* | Wind** | Luminosity | Snow |
|---|---|---|---|---|---|---|---|
| 1788015705 | 18.89° C | 87% | 999.4 hPa | 1.27 mm | - | - | - |
| 1788013905 | 18.89° C | 91% | 999.8 hPa | 1.27 mm | - | - | - |
| 1788012105 | 18.33° C | 93% | 1000.3 hPa | 0 mm | - | - | - |
| 1788010305 | 17.78° C | 94% | 1000.6 hPa | 0 mm | - | - | - |
| 1788008505 | 17.22° C | 94% | 1001 hPa | 0.51 mm | - | - | - |
| 1788006705 | 16.67° C | 94% | 1001.6 hPa | 1.02 mm | - | - | - |
| 1788004905 | 16.67° C | 94% | 1002.2 hPa | 1.27 mm | - | - | - |
| 1788003105 | 16.11° C | 93% | 1002.9 hPa | 2.29 mm | - | - | - |
| 1788001305 | 16.67° C | 92% | 1003.7 hPa | 2.29 mm | - | - | - |
| 1787999505 | 17.22° C | 91% | 1004.1 hPa | 1.02 mm | - | - | - |
| 1787997705 | 17.78° C | 89% | 1004.3 hPa | 0 mm | - | - | - |
| 1787995905 | 17.22° C | 90% | 1004.7 hPa | 1.02 mm | - | - | - |
| 1787994105 | 16.67° C | 89% | 1004.9 hPa | 1.02 mm | - | - | - |
| 1787992305 | 17.22° C | 84% | 1005.1 hPa | 0 mm | - | - | - |
| 1787990505 | 17.78° C | 84% | 1005 hPa | 0 mm | - | - | - |
| 1787988705 | 17.22° C | 84% | 1005 hPa | 0 mm | - | - | - |
| 1787986905 | 17.22° C | 84% | 1005 hPa | 0 mm | - | - | - |
| 1787985105 | 17.22° C | 86% | 1005.2 hPa | 0 mm | - | - | - |
| 1787983305 | 16.67° C | 87% | 1005.2 hPa | 0 mm | - | - | - |
| 1787981505 | 16.67° C | 89% | 1005.5 hPa | 0 mm | - | - | - |
| 1787979705 | 16.67° C | 88% | 1005.5 hPa | 0 mm | - | - | - |
| 1787977905 | 16.67° C | 88% | 1005.5 hPa | 0 mm | - | - | - |
| 1787976105 | 16.67° C | 89% | 1005.6 hPa | 0 mm | - | - | - |
| 1787974305 | 16.67° C | 88% | 1005.7 hPa | 0 mm | - | - | - |
| 1787972505 | 16.67° C | 87% | 1005.6 hPa | 0 mm | - | - | - |
* Rain latest hour (hover to see other rain measurements)
** Current wind speed in m/s (hover to see current wind gust speed)